Date String (YYYY-MM-DD hh:mm:ss) UTC,Instrument flags,Ambient pressure (hPa),Sample flow (lpm),Bypass flow (lpm),Sample temperature (°C),Ambient temperature (°C),ASC tube jacket temperature (°C),LED temperature (°C),Box temperature (°C),Sample RH (%),Span deviation,Mass concentration (μg/m³),Mass concentration (μg/m³),Mass concentration (μg/m³)
DateTimeUTC,F1_M11,P_M11,Q1_M11,Q2_M11,T1_M11,T2_M11,T3_M11,T4_M11,T5_M11,U1_M11,ZSPAN_M11,X2_M11,X0_M11,X1_M11
2023-03-05 02:00:00,,0816.4,5.00,0.00,22.7,21.0,00.0,31.5,24.4,15.4,0000.4,0008.07,0012.66,0007.43
2023-03-05 02:01:00,,0816.4,5.03,0.00,22.7,21.6,00.0,31.5,24.5,15.4,0000.1,0008.04,0012.13,0007.43
2023-03-05 02:02:00,,0816.4,4.99,0.00,22.8,22.8,00.0,31.4,24.8,15.3,0000.2,0008.04,0011.98,0007.44
2023-03-05 02:03:00,,0816.4,5.00,0.00,22.9,23.5,00.0,31.5,25.0,15.2,0000.2,0008.01,0011.88,0007.45
2023-03-05 02:04:00,,0816.4,5.00,0.00,23.0,23.1,00.0,31.5,24.9,15.1,0000.1,0008.02,0011.89,0007.44
2023-03-05 02:05:00,,0816.4,5.02,0.00,23.0,22.7,00.0,31.6,24.9,15.1,0000.2,0008.03,0011.90,0007.44
2023-03-05 02:06:00,,0816.4,5.00,0.00,23.0,22.4,00.0,31.6,24.8,15.1,0000.1,0008.09,0012.05,0007.46
2023-03-05 02:07:00,,0816.4,4.99,0.00,23.0,22.1,00.0,31.6,24.8,15.1,0000.1,0008.09,0011.78,0007.48
2023-03-05 02:08:00,,0816.4,5.00,0.00,23.0,21.9,00.0,31.6,24.8,15.1,0000.0,0008.13,0011.86,0007.50
2023-03-05 02:09:00,,0816.4,4.99,0.00,23.0,21.7,00.0,31.6,24.8,15.1,0000.2,0008.11,0011.80,0007.50
2023-03-05 02:10:00,,0816.4,5.01,0.00,22.9,21.6,00.0,31.6,24.7,15.2,0000.2,0008.11,0011.70,0007.52
2023-03-05 02:11:00,,0816.4,5.01,0.00,22.9,21.5,00.0,31.6,24.7,15.2,0000.3,0008.15,0011.72,0007.57
2023-03-05 02:12:00,,0816.4,5.00,0.00,22.9,21.4,00.0,31.6,24.7,15.2,0000.4,0008.21,0011.82,0007.61
2023-03-05 02:13:00,,0816.3,4.99,0.00,22.9,21.3,00.0,31.6,24.7,15.2,0000.2,0008.24,0011.85,0007.64
2023-03-05 02:14:00,,0816.4,5.00,0.00,22.9,21.3,00.0,31.6,24.6,15.2,-000.0,0008.27,0011.88,0007.68
2023-03-05 02:15:00,,0816.4,5.00,0.00,22.9,21.2,00.0,31.6,24.6,15.3,0000.1,0008.31,0011.96,0007.72
2023-03-05 02:16:00,,0816.4,5.01,0.00,22.8,21.1,00.0,31.6,24.6,15.3,-000.0,0008.32,0012.12,0007.74
2023-03-05 02:17:00,,0816.5,5.01,0.00,22.8,21.1,00.0,31.6,24.6,15.3,0000.0,0008.32,0012.62,0007.76
2023-03-05 02:18:00,,0816.4,4.99,0.00,22.8,21.1,00.0,31.6,24.6,15.3,-000.5,0008.37,0013.24,0007.79
2023-03-05 02:19:00,,0816.4,5.00,0.00,22.8,21.1,00.0,31.6,24.6,15.3,-000.8,0008.34,0013.09,0007.79
2023-03-05 02:20:00,,0816.3,5.00,0.00,22.8,21.0,00.0,31.6,24.5,15.3,-001.0,0008.37,0013.39,0007.83
2023-03-05 02:21:00,,0816.3,5.00,0.00,22.8,21.0,00.0,31.6,24.5,15.3,-001.0,0008.41,0013.60,0007.86
2023-03-05 02:22:00,,0816.4,5.01,0.00,22.7,21.0,00.0,31.5,24.5,15.4,-000.8,0008.43,0013.65,0007.87
2023-03-05 02:23:00,,0816.4,4.99,0.00,22.7,21.0,00.0,31.5,24.5,15.4,-000.8,0008.44,0013.67,0007.88
2023-03-05 02:24:00,,0816.4,5.00,0.00,22.7,21.0,00.0,31.5,24.5,15.4,-000.5,0008.43,0013.64,0007.88
2023-03-05 02:25:00,,0816.3,5.01,0.00,22.7,21.0,00.0,31.5,24.5,15.4,-000.4,0008.46,0013.79,0007.88
2023-03-05 02:26:00,,0816.3,5.00,0.00,22.7,20.9,00.0,31.5,24.5,15.4,-000.4,0008.47,0013.76,0007.88
2023-03-05 02:27:00,,0816.3,5.00,0.00,22.7,20.9,00.0,31.5,24.4,15.4,-000.5,0008.47,0013.54,0007.87
2023-03-05 02:28:00,,0816.3,5.00,0.00,22.7,20.9,00.0,31.5,24.4,15.4,-000.9,0008.51,0013.08,0007.87
2023-03-05 02:29:00,,0816.3,5.01,0.00,22.6,20.9,00.0,31.5,24.4,15.4,-000.6,0008.47,0012.42,0007.88
2023-03-05 02:30:00,,0816.3,4.99,0.00,22.6,20.9,00.0,31.4,24.4,15.4,-000.4,0008.52,0012.50,0007.89
2023-03-05 02:31:00,,0816.4,5.00,0.00,22.6,20.9,00.0,31.4,24.4,15.4,-000.3,0008.52,0012.57,0007.89
2023-03-05 02:32:00,,0816.4,4.98,0.00,22.6,20.9,00.0,31.4,24.4,15.5,-000.4,0008.52,0012.63,0007.89
2023-03-05 02:33:00,,0816.3,5.00,0.00,22.6,20.9,00.0,31.4,24.4,15.5,-000.5,0008.49,0012.58,0007.87
2023-03-05 02:34:00,,0816.3,5.01,0.00,22.6,20.9,00.0,31.4,24.4,15.5,-000.6,0008.46,0012.53,0007.86
2023-03-05 02:35:00,,0816.3,5.00,0.00,22.6,20.9,00.0,31.4,24.4,15.5,-000.7,0008.44,0012.48,0007.84
2023-03-05 02:36:00,,0816.3,4.99,0.00,22.6,20.9,00.0,31.4,24.3,15.5,-000.4,0008.40,0012.41,0007.82
2023-03-05 02:37:00,,0816.3,5.00,0.00,22.6,20.9,00.0,31.4,24.3,15.5,-000.5,0008.40,0012.64,0007.82
2023-03-05 02:38:00,,0816.3,5.00,0.00,22.6,20.9,00.0,31.3,24.3,15.5,-000.8,0008.43,0012.84,0007.82
2023-03-05 02:39:00,,0816.3,5.01,0.00,22.6,21.1,00.0,31.3,24.4,15.5,-000.9,0008.42,0013.13,0007.83
2023-03-05 02:40:00,,0816.4,5.01,0.00,22.6,22.0,00.0,31.3,24.6,15.4,-000.9,0008.40,0013.14,0007.83
2023-03-05 02:41:00,,0816.3,5.00,0.00,22.7,23.0,00.0,31.3,24.8,15.4,-000.7,0008.35,0013.09,0007.80
2023-03-05 02:42:00,,0816.3,5.02,0.00,22.8,23.0,00.0,31.4,24.8,15.3,-000.9,0008.33,0012.85,0007.79
2023-03-05 02:43:00,,0816.3,4.99,0.00,22.8,22.6,00.0,31.4,24.8,15.3,-000.9,0008.36,0012.62,0007.79
2023-03-05 02:44:00,,0816.3,5.00,0.00,22.8,22.3,00.0,31.4,24.7,15.3,-000.9,0008.39,0012.75,0007.81
2023-03-05 02:45:00,,0816.3,5.00,0.00,22.8,22.0,00.0,31.4,24.7,15.3,-000.9,0008.44,0012.85,0007.85
2023-03-05 02:46:00,,0816.3,4.99,0.00,22.8,21.8,00.0,31.5,24.7,15.3,-001.0,0008.48,0012.97,0007.89
2023-03-05 02:47:00,,0816.3,5.00,0.00,22.8,21.7,00.0,31.5,24.6,15.2,-001.1,0008.55,0014.11,0007.93
2023-03-05 02:48:00,,0816.2,4.99,0.00,22.8,21.5,00.0,31.5,24.6,15.2,-001.2,0008.57,0013.97,0007.97
2023-03-05 02:49:00,,0816.2,5.00,0.00,22.8,21.4,00.0,31.5,24.6,15.2,-000.9,0008.57,0013.84,0007.98
2023-03-05 02:50:00,,0816.1,5.00,0.00,22.8,21.3,00.0,31.5,24.6,15.2,-000.5,0008.59,0013.58,0007.99
2023-03-05 02:51:00,,0816.1,5.00,0.00,22.8,21.3,00.0,31.5,24.5,15.2,-000.5,0008.59,0013.88,0007.99
2023-03-05 02:52:00,,0816.1,5.00,0.00,22.8,21.2,00.0,31.5,24.6,15.1,-000.6,0008.61,0013.96,0008.01
2023-03-05 02:53:00,,0816.1,5.00,0.00,22.8,21.2,00.0,31.5,24.5,15.0,-000.4,0008.63,0014.08,0008.02
2023-03-05 02:54:00,,0816.1,5.00,0.00,22.7,21.2,00.0,31.5,24.5,14.9,-000.6,0008.60,0014.82,0008.00
2023-03-05 02:55:00,,0816.1,5.02,0.00,22.7,21.1,00.0,31.5,24.5,14.8,-000.5,0008.53,0014.67,0007.95
2023-03-05 02:56:00,,0816.0,5.00,0.00,22.7,21.1,00.0,31.5,24.5,14.8,-000.5,0008.46,0014.49,0007.89
2023-03-05 02:57:00,,0816.0,4.99,0.00,22.7,21.1,00.0,31.5,24.4,14.8,-000.2,0008.42,0014.53,0007.83
2023-03-05 02:58:00,,0816.1,4.99,0.00,22.7,21.0,00.0,31.5,24.5,14.7,-000.2,0008.33,0013.63,0007.76
2023-03-05 02:59:00,,0816.1,5.01,0.00,22.7,21.0,00.0,31.4,24.5,14.6,-000.2,0008.29,0013.65,0007.71
